Regional Weather Roundup
Issued by NWS

Home | Current Version | Previous Version | Text Only | Print | Product List | Glossary Off
Versions: 1 2 3 4 5 6 7 8 9 10 11 12 13 14 15 16 17 18 19 20 21 22 23 24 25 26 27 28 29 30 31 32 33 34 35 36 37 38 39 40 41 42 43 44 45 46 47 48 49 50

000
ASUS43 KMKX 252259
RWRWI

WISCONSIN REGIONAL WEATHER ROUNDUP
NATIONAL WEATHER SERVICE MILWAUKEE/SULLIVAN WI
500 PM CST SUN JAN 25 2015

NOTE: "FAIR" INDICATES FEW OR NO CLOUDS BELOW 12,000 FEET WITH NO
SIGNIFICANT WEATHER AND/OR OBSTRUCTIONS TO VISIBILITY.

WIZ001-002-006>008-014>016-023>028-260000-
NORTHWEST WISCONSIN

CITY           SKY/WX    TMP DP  RH WIND       PRES   REMARKS
SUPERIOR ARPT  CLOUDY    22  13  69 CALM      30.05S
ASHLAND        PTCLDY    17   8  67 N6        30.05R WCI   9
HAYWARD        PTCLDY    21   6  52 CALM      30.00F
SIREN          CLOUDY    25  11  55 E3        30.02S
CUMBERLAND     CLOUDY    21   9  58 SE5       30.01S WCI  15
RICE LAKE      CLOUDY    22  11  61 CALM      30.03F
CHETEK         CLOUDY    22  10  60 CALM      30.02F
LADYSMITH      CLOUDY    23   9  56 CALM      30.03S
EAU CLAIRE     NOT AVBL
MENOMONIE      CLOUDY    25  11  55 NE3       30.03F
NEW RICHMOND   CLEAR     22  10  60 CALM      30.03F
OSCEOLA        CLEAR     25  12  57 SE3       30.07R
$$

WIZ003>005-009-010-017-018-260000-
NORTH CENTRAL WISCONSIN

CITY           SKY/WX    TMP DP  RH WIND       PRES   REMARKS
MANITOWISH WTR CLOUDY    17   5  58 CALM      29.98S
ARBOR VITAE    CLOUDY    20   7  57 CALM      29.98S
WOODRUFF       CLOUDY    20   7  57 CALM      29.98S
RHINELANDER    CLOUDY    18   5  57 CALM      29.98F
EAGLE RIVER    CLOUDY    18   3  53 CALM      29.98S
LAND O LAKES   CLOUDY    18   6  58 CALM      29.98F
PHILLIPS       CLOUDY    19   6  56 CALM      29.99S
TOMAHAWK       CLOUDY    19   5  56 CALM      30.00F
MEDFORD        CLOUDY    19   9  66 S5        29.99F WCI  12
MERRILL        CLOUDY    21   5  51 CALM      30.00F
$$

WIZ029-030-035-036-043>047-260000-
CENTRAL WISCONSIN

CITY           SKY/WX    TMP DP  RH WIND       PRES   REMARKS
WAUSAU         MOCLDY    19   4  51 E3        30.00S
MOSINEE        PTCLDY    19   7  58 N6        30.02R WCI  11
MARSHFIELD     CLOUDY    21   9  59 NE7       30.01R WCI  12
STEVENS POINT  PTCLDY    17   4  56 E3        30.03R
WAUPACA        CLEAR     22   8  54 N5        30.05R WCI  16
WAUTOMA        NOT AVBL
WISC RAPIDS    CLOUDY    19   6  57 E5        30.05R WCI  12
CAMP DOUGLAS   NOT AVBL
$$

WIZ011>013-019>022-031-037>040-048>050-260000-
NORTHEAST WISCONSIN

CITY           SKY/WX    TMP DP  RH WIND       PRES   REMARKS
ANTIGO         CLOUDY    17   6  63 CALM      29.99S
SHAWANO        PTCLDY    22   9  57 E5        30.06S WCI  15
OCONTO         CLEAR     17   7  65 E6        30.07S WCI   9
STURGEON BAY   CLEAR     16   3  57 NE7       30.07S WCI   6
GREEN BAY      CLEAR     17   9  70 NE13      30.06R WCI   4
MANITOWOC      NOT AVBL
APPLETON       PTCLDY    19   7  58 NE10      30.05R WCI   8
CLINTONVILLE   CLEAR     21   7  53 E5        30.06R WCI  15
OSHKOSH        CLEAR     19  10  68 N13       30.04R WCI   6
$$

WIZ032>034-041-042-053>061-260000-
SOUTHWEST WISCONSIN

CITY           SKY/WX    TMP DP  RH WIND       PRES   REMARKS
LA CROSSE      CLOUDY    28  14  55 N5        30.04R WCI  23
SPARTA         PTCLDY    24  12  58 NE5       30.05R WCI  19
VIROQUA        PTCLDY    24  13  64 NE6       29.99R WCI  17
BOSCOBEL       CLEAR     26  13  57 NE3       30.03R
PRAIRIE DU CHI CLEAR     28  15  57 N7        30.02R WCI  21
PLATTEVILLE    CLEAR     23  16  74 N9        29.98R WCI  13
$$

WIZ056-057-062-063-064-067-068-260000-
SOUTH CENTRAL WISCONSIN

CITY           SKY/WX    TMP DP  RH WIND       PRES   REMARKS
REEDSBURG      CLEAR     22  11  61 NE6       30.01F WCI  15
BARABOO/DELLS  CLEAR     22  10  60 NE9       30.01S WCI  11
LONE ROCK      NOT AVBL
MINERAL POINT  CLEAR     25  14  63 N9        29.97S WCI  15
MADISON        PTCLDY    21  11  65 NE15      30.00R WCI   8
MIDDLETON      CLEAR     25  14  63 NE14G20   30.00R WCI  13
WATERTOWN      CLEAR     23   9  55 NE10G17   29.99R WCI  12
MONROE         CLEAR     25  18  74 N17       29.95R WCI  11
JANESVILLE     CLEAR     27  10  50 NE14G21   29.97R WCI  15
$$

WIZ051-052-058>065-066-070>072-260000-
SOUTHEAST WISCONSIN

CITY           SKY/WX    TMP DP  RH WIND       PRES   REMARKS
MILWAUKEE      MOCLDY    25  13  60 N15G25    29.98R WCI  13
WAUKESHA       CLEAR     19  10  68 NE16G25   29.99R WCI   5
MILWAUKEE/TIMM CLEAR     23  14  68 N9        30.00R WCI  13
RACINE         PTCLDY    24  14  65 N15G24    29.99R WCI  11
BURLINGTON     PTCLDY    22  13  68 NE16G24   29.97R WCI   8
KENOSHA        CLEAR     24  14  65 NE15      29.96R WCI  11
FOND DU LAC    PTCLDY    19  11  70 N15       30.03R WCI   5
SHEBOYGAN      MOCLDY    21  12  68 N16G23    30.02R WCI   7
WEST BEND      CLEAR     21  10  63 N15G21    29.99R WCI   8
JUNEAU         CLEAR     20  13  74 N12G18    30.01R WCI   8
$$

LSZ147-162-260000-
LAKE SUPERIOR

STATION/POSITION TIME  TEMP    WIND        PRES    WAVE
                       AIR SEA DIR/SP/G            HT/PER
                 (UTC) (F)     (DEG/KT/KT) (MB)    (FT/S)
DEVILS ISLAND    2200   20     150/  3/  4 1019.4F
PORT WING        2200   22      50/  1/  3 1017.9F
SAXON HARBOR     2240   21      CALM  /  2 1017.3F
$$

LMZ867-665-643>646-260000-
LAKE MICHIGAN

STATION/POSITION TIME  TEMP    WIND        PRES    WAVE
                       AIR SEA DIR/SP/G            HT/PER
                 (UTC) (F)     (DEG/KT/KT) (MB)    (FT/S)
NORTHPORT PIER   2209   18      10/  5/ 10 1018.3S
SISTER BAY       2213   23      30/  5/  9   N/A
KEWAUNEE LAKESHO 2200   21      40/ 19/ 22 1016.5R
SHEBOYGAN LAKESH 2200   24      20/ 23/ 26 1017.2R
PORT WASHINGTON  2200   25      40/ 17/ 21 1016.6
MILWAUKEE LAKESH 2200   25      20/ 20/ 23   N/A
KENOSHA   LAKESH 2200   26      20/ 22/ 26 1013.9R
$$

TC  - TEMPERATURE IN CELSIUS
VSB - VISIBILITY IN STATUTE MILES
WCI - WIND CHILL INDEX
HX  - HEAT INDEX




USA.gov is the U.S. government's official web portal to all federal, state and local government web resources and services.